Preview of NWS' New Version of Forecast
This preview is not operational and should not be used for support decisions.

Regional Weather Roundup (RWR)

Issued by National Weather Service (NWS)

                            
000
ASUS45 KABQ 200701
RWRNM 
NEW MEXICO REGIONAL WEATHER ROUNDUP
NATIONAL WEATHER SERVICE ALBUQUERQUE NM
100 AM MDT SAT APR 20 2019

NOTE: "FAIR" MEANS FEW OR NO CLOUDS BELOW 12,000 FEET AGL WITH NO
       SIGNIFICANT WEATHER OR OBSTRUCTIONS TO VISION.

      THIS PRODUCT IS RELEASED AS TWO VERSIONS.  ONE VERSION NEAR
      THE TOP OF THE HOUR CONTAINING PRELIMINARY DATA FROM ALBUQUERQUE
      AND OTHER STATIONS.  A FINAL VERSION WITH ADDITIONAL DATA IS 
      ISSUED ABOUT 10 MINUTES AFTER THE HOUR.
 
NMZ501-503-504-510>518-200800-
NORTHWEST PLATEAU/NORTHCENTRAL MOUNTAINS
  
CITY           SKY/WX    TMP DP  RH WIND       PRES   REMARKS
FARMINGTON     FAIR      46  16  30 NE7       30.07S                  
LOS ALAMOS       N/A     56  10  16 SW10      30.21S                  
SANTA FE       FAIR      50  26  39 E3        30.15S                  
TAOS           FAIR      41  22  46 E3        30.21S                  

$$
NMZ402-403-502-505>509-200800-
WESTCENTRAL MOUNTAINS/SOUTHWEST MOUNTAINS
  
CITY           SKY/WX    TMP DP  RH WIND       PRES   REMARKS
GALLUP         FAIR      39  22  50 W3        30.15S                  
GRANTS         FAIR      42  26  53 NW9       30.18S                  
SILVER CITY    FAIR      45  21  38 N6        30.13S                  

$$
NMZ407-409-411-412-200800-
SOUTHERN DESERTS
  
CITY           SKY/WX    TMP DP  RH WIND       PRES   REMARKS
DEMING         FAIR      57  22  25 NW7       30.06S                  
HOLLOMAN AFB   FAIR      57  28  33 SE6       30.09S                  
ALAMOGORDO     FAIR      63  25  23 SE10      30.08F                  
T OR C         FAIR      65  16  15 S7        30.09S                  

$$
NMZ519>523-200800-
CENTRAL VALLEYS/CENTRAL HIGHLANDS
  
CITY           SKY/WX    TMP DP  RH WIND       PRES   REMARKS
ALBUQUERQUE    FAIR      55  32  41 SE7       30.11S                  
DOUBLE EAGLE   FAIR      49  32  51 CALM      30.13F                  
CLINES CORNERS FAIR      46  23  40 SW13      30.21S                  
BELEN          FAIR      57  31  36 SE7       30.10F                  
SOCORRO        NOT AVBL                                               

$$
NMZ524>526-539-540-200800-
SOUTHCENTRAL MOUNTAINS
  
CITY           SKY/WX    TMP DP  RH WIND       PRES   REMARKS
RUIDOSO        FAIR      54  18  24 CALM      30.23S                  

$$
NMZ527>531-200800-
NORTHEAST HIGHLANDS/NORTHEAST PLAINS
  
CITY           SKY/WX    TMP DP  RH WIND       PRES   REMARKS
LAS VEGAS      FAIR      47  30  51 NW5       30.17F                  
RATON          FAIR      44  32  62 NW7       30.13F                  
CLAYTON        FAIR      49  31  49 SW7       30.07F                  

$$
NMZ532>537-200800-
EASTCENTRAL PLAINS
  
CITY           SKY/WX    TMP DP  RH WIND       PRES   REMARKS
SANTA ROSA     FAIR      46  30  54 SE6       30.10S                  
TUCUMCARI      FAIR      55  35  47 CALM      30.04F                  
CANNON AFB     FAIR      51  31  47 SW9       30.10F                  
CLOVIS AIRPORT FAIR      48  32  53 SW9       30.10F                  

$$
NMZ028-029-538-200800-
SOUTHEAST PLAINS
  
CITY           SKY/WX    TMP DP  RH WIND       PRES   REMARKS
ROSWELL        FAIR      53  30  41 S9        30.07S                  
ARTESIA        FAIR      59  32  36 S15       30.08F                  
CARLSBAD       FAIR      59  30  33 S13       30.08F                  
HOBBS          FAIR      50  34  53 S6        30.11F                  


$$